Lid_Strength_Index
3 3 3 3 3 3 3 3 3 3 2 3 3 3 2 2 3 5 7 5 4 1 3 5 7 5 3 4 3 3 9 11 9 8 8 5 6 4 4 5 5 4 4 3 2
3 3 3 3 3 3 2 2 3 3 3 3 3 2 2 2 5 6 3 2 3 3 6 7 8 6 6 5 4 6 9 9 6 6 7 5 5 5 6 6 6 5 4 2 2
4 3 3 3 3 3 3 2 2 2 2 2 2 2 2 3 8 6 3 2 2 3 5 7 7 6 8 6 6 6 9 7 6 5 5 6 6 4 6 7 5 6 5 4 3
3 3 3 3 3 2 2 2 2 2 2 2 2 2 2 5 13 6 3 3 2 3 6 8 8 9 9 9 6 9 6 6 6 5 6 6 5 6 5 5 4 4 3 4 4
3 4 3 3 3 3 2 2 2 2 2 2 2 2 4 8 9 4 3 4 5 5 6 9 9 9 10 9 8 8 7 6 5 6 6 5 6 6 6 4 3 3 4 4 4
4 4 4 4 4 3 2 2 2 2 2 2 2 3 6 11 6 5 5 5 6 7 7 7 8 8 9 9 9 8 7 7 6 7 6 7 7 6 5 4 4 4 4 4 4
4 4 4 4 4 3 3 3 2 2 2 2 2 3 7 9 5 4 5 5 5 6 8 7 6 8 9 11 8 9 10 8 8 7 7 6 9 8 5 4 5 4 4 4 3
4 4 4 4 4 3 3 2 2 2 3 3 2 4 8 5 3 4 4 5 4 5 6 5 5 7 8 8 10 12 11 13 10 9 8 7 12 7 4 5 5 5 4 4 4
4 4 4 4 3 3 2 2 3 3 3 2 4 5 8 3 5 4 4 6 5 5 6 5 6 7 8 11 12 12 15 13 12 9 9 8 11 7 6 5 5 5 4 4 4
4 4 4 4 3 2 3 3 3 3 3 3 3 7 6 7 4 4 3 4 6 6 7 7 8 11 10 11 14 13 13 12 13 10 9 10 11 8 7 6 6 5 4 4 4
4 4 4 4 3 3 3 4 6 6 6 9 8 8 7 4 3 5 4 5 5 7 10 8 10 12 10 10 10 11 13 13 11 10 11 12 11 10 7 7 6 6 5 4 4
4 4 4 3 3 3 3 7 7 7 10 7 7 7 6 5 8 6 4 7 8 11 9 10 12 9 9 9 11 11 13 12 10 9 11 12 12 10 9 9 7 6 5 5 4
4 4 4 3 4 4 5 6 4 5 9 9 7 7 6 5 8 7 5 7 9 11 10 12 10 8 10 10 12 12 12 12 12 10 10 11 13 11 9 8 8 8 6 5 4
4 4 4 4 6 5 6 4 3 4 11 12 9 7 6 6 9 5 4 6 9 10 9 10 8 10 10 11 10 13 10 11 12 13 15 10 16 11 9 9 8 8 7 7 5
4 4 4 4 6 7 5 4 3 5 17 11 10 4 6 9 8 7 4 7 10 10 10 11 10 10 11 11 10 12 10 11 11 12 13 13 15 13 10 11 9 8 7 6 6
4 5 5 5 5 5 4 3 5 13 17 13 10 10 9 9 8 7 7 6 7 9 9 10 7 9 10 9 9 9 11 11 11 13 18 14 14 14 11 10 9 8 7 6 6
4 5 5 5 7 4 4 6 13 16 13 13 13 10 10 10 10 8 9 10 12 15 15 10 10 9 9 11 9 11 14 18 19 19 18 13 14 13 10 9 9 8 7 7 6
5 6 6 5 4 4 5 11 15 17 15 12 12 11 12 10 10 10 10 12 10 11 14 15 16 10 9 11 12 12 13 17 21 19 17 12 16 13 8 7 7 7 7 7 6
6 6 6 6 4 4 8 14 14 13 13 13 12 13 12 11 11 11 11 11 11 10 15 15 15 9 9 9 10 13 15 11 16 15 17 14 11 9 8 8 7 7 6 6 6
7 7 7 6 5 6 12 14 13 12 11 11 15 13 14 12 12 12 12 10 11 8 9 12 16 12 11 10 11 12 11 16 15 20 20 16 15 14 12 11 8 8 7 6 5
8 10 8 6 6 9 14 13 14 11 10 12 13 14 12 13 13 13 12 9 8 9 9 12 13 14 13 14 14 14 15 14 14 15 19 20 17 11 12 11 11 9 7 7 6
9 15 8 7 13 14 13 14 12 11 10 11 11 12 13 13 13 13 13 10 7 9 12 11 13 16 14 11 11 11 13 13 17 17 16 17 17 11 12 11 10 10 8 8 7
13 11 8 7 14 14 14 13 12 11 11 11 12 11 10 13 14 12 11 9 8 10 11 10 13 17 16 13 12 13 12 13 13 14 16 18 16 12 11 12 11 11 11 10 10
11 15 12 10 11 13 14 14 14 11 11 10 11 10 11 12 11 13 12 10 9 9 9 10 13 15 17 16 14 16 15 14 14 16 16 16 15 14 13 13 13 13 13 12 11
11 15 15 15 14 13 13 13 14 13 11 10 12 11 12 14 15 14 12 12 11 8 10 10 14 13 13 13 13 15 15 15 16 14 16 16 16 14 14 14 14 14 13 13 14
14 14 15 15 13 13 13 13 14 13 12 13 13 12 11 13 12 13 12 13 14 11 11 11 14 13 14 13 13 15 14 15 15 15 14 15 16 13 12 12 14 14 14 15 15
11 12 11 14 14 14 13 13 13 12 11 10 11 12 12 11 10 10 10 10 11 12 13 13 14 14 17 13 14 16 15 15 14 14 14 16 14 12 13 13 14 14 14 15 15